Weather in Martuni

Armenia     40˚08′12″N   45˚18′01″E
temp.,
°C
wind,
m/s
gust,
m/s
humid.,
%
clouds,
%
prec.,
mm/h
press.,
hPa
HPBL,
m
30 november, mon
mon3001:00nnw3391100 0.3 1026287
04:00+1˚nw4484100 0.7 1026389
07:00+1˚nw227596 0.2 1025483
10:00+1˚s017094 0.3 1025578
13:00+2˚sse116371 0.0 1023845
16:00+3˚s126276 0.0 1022859
19:00+2˚sw436713 0.0 1023339
22:00+2˚sw44658 0.0 1024426
1 december, tue
tue101:00+1˚sw44641 0.0 1024421
04:00+1˚sw44701 0.0 1023403
07:00+1˚sw447216 0.0 1023474
10:00+1˚sw346635 0.0 1024651
13:00+3˚ssw345719 0.0 10221068
16:00+3˚sw545826 0.0 1021924
19:00+2˚sw446736 0.0 1023403
22:00+2˚sw436620 0.0 1024413
2 december, wed
wed201:00+2˚sw44690 0.0 1025375
04:00+2˚sw32680 0.0 1025343
07:00+2˚sw21631 0.0 1025353
10:00+3˚sw11582 0.0 1025499
13:00+4˚e21559 0.0 1023654
16:00+4˚ene21627 0.0 1022705
19:00+3˚sw016315 0.0 1024733
22:00+3˚n226818 0.0 1025621
3 december, thu
thu301:00+3˚n227342 0.0 1026501
04:00+2˚n117452 0.1 1026469
07:00+2˚nnw117392 0.0 1026508
10:00+3˚wnw016791 0.1 1028566
13:00+4˚ene216657 0.0 1026636
16:00+4˚ene216835 0.0 1025659
19:00+3˚n11681 0.0 1027702
22:00+2˚nnw117927 0.0 1028430
4 december, fri
fri401:00+2˚n127579 0.0 1029420
04:00+1˚nnw217773 0.1 1028422
07:00+1˚nw217697 0.1 1028388
10:00+1˚ene116793 0.1 1029704
13:00+2˚ene326881 0.0 1027735
16:00+2˚ne216790 0.0 1025734
19:00+2˚wsw116499 0.0 1027645
22:00+1˚wnw227399 0.1 1028428